Louisa, VA

9:56 AM EDT on August 17, 2017 (GMT -0400)
Louisa County-Freeman

Weather History for KLKU - February, 2013

Change the Weather History Date:

Sunday, February 17, 2013

  Actual Average (KOMH) Record (KOMH)
Temperature  
Mean Temperature 26 °F -  
Max Temperature 33 °F 46 °F 74 °F (1976)
Min Temperature 19 °F 27 °F 3 °F (1958)
Degree Days  
Heating Degree Days 39    
Moisture  
Dew Point 7 °F    
Average Humidity 44    
Maximum Humidity 74    
Minimum Humidity 27    
Precipitation  
Precipitation 0.00 in - - ()
Sea Level Pressure  
Sea Level Pressure 30.01 in    
Wind  
Wind Speed 7 mph (WNW)    
Max Wind Speed 21 mph    
Max Gust Speed 34 mph    
Visibility 10 miles    
Events Snow    
Averages and records for this station are not official NWS values.
T = Trace of Precipitation, MM = Missing Value Source: NWS Daily Summary

Daily Weather History Graph

Daily Weather History Graph

Search for Another Location

Airport or City:

Trip Planner

Search our weather history database for the weather conditions in past years. The results will help you decide how hot, cold, wet, or windy it might be!

Date:

Astronomy

Feb. 17, 2013 Rise Set
Actual Time 6:59 AM EST 5:53 PM EST
Civil Twilight 6:32 AM EST 6:19 PM EST
Nautical Twilight 6:01 AM EST 6:50 PM EST
Astronomical Twilight 5:31 AM EST 7:21 PM EST
Moon 10:58 AM EST 12:39 AM EST
Length of Visible Light 11h 47m
Length of Day
10h 53m
Waxing Crescent, 49% of the Moon is Illuminated
Feb 17
Waxing Crescent
Feb 17
First Quarter
Feb 25
Full
Mar 4
Last Quarter
Mar 11
New

Hourly Weather History & Observations

Time (EST) Temp. Windchill Dew Point Humidity Pressure Visibility Wind Dir Wind Speed Gust Speed Precip Events Conditions
12:15 AM 28.4 °F - 14.0 °F 55% 29.85 in 10.0 mi Calm Calm - N/A   Clear
12:35 AM 26.6 °F 22.6 °F 15.8 °F 64% 29.85 in 10.0 mi West 3.5 mph - N/A   Clear
12:55 AM 24.8 °F - 14.0 °F 64% 29.85 in 10.0 mi Calm Calm - N/A   Clear
1:15 AM 26.6 °F - 14.0 °F 59% 29.85 in 10.0 mi Calm Calm - N/A   Clear
1:35 AM 26.6 °F 22.6 °F 14.0 °F 59% 29.85 in 10.0 mi NW 3.5 mph - N/A   Clear
1:55 AM 26.6 °F 21.2 °F 14.0 °F 59% 29.86 in 10.0 mi WNW 4.6 mph - N/A   Clear
2:15 AM 26.6 °F 22.6 °F 14.0 °F 59% 29.86 in 10.0 mi NW 3.5 mph - N/A   Clear
2:35 AM 26.6 °F - 12.2 °F 55% 29.86 in 10.0 mi Calm Calm - N/A   Clear
2:55 AM 24.8 °F 20.5 °F 12.2 °F 59% 29.86 in 10.0 mi WNW 3.5 mph - N/A   Clear
3:15 AM 23.0 °F - 12.2 °F 63% 29.86 in 10.0 mi Calm Calm - N/A   Clear
3:35 AM 21.2 °F - 12.2 °F 68% 29.86 in 10.0 mi Calm Calm - N/A   Clear
3:55 AM 19.4 °F 12.8 °F 12.2 °F 74% 29.86 in 10.0 mi West 4.6 mph - N/A   Clear
4:15 AM 23.0 °F 14.7 °F 10.4 °F 59% 29.87 in 10.0 mi West 6.9 mph - N/A   Clear
4:35 AM 24.8 °F 17.9 °F 10.4 °F 54% 29.87 in 10.0 mi WNW 5.8 mph - N/A   Clear
4:55 AM 24.8 °F 19.1 °F 10.4 °F 54% 29.87 in 10.0 mi WNW 4.6 mph - N/A   Clear
5:15 AM 24.8 °F 16.9 °F 12.2 °F 59% 29.88 in 10.0 mi West 6.9 mph - N/A   Mostly Cloudy
5:35 AM 26.6 °F 20.0 °F 12.2 °F 55% 29.89 in 10.0 mi West 5.8 mph - N/A   Overcast
5:55 AM 26.6 °F 19.1 °F 14.0 °F 59% 29.89 in 10.0 mi WNW 6.9 mph - N/A   Overcast
6:15 AM 26.6 °F 20.0 °F 15.8 °F 64% 29.90 in 10.0 mi West 5.8 mph - N/A   Overcast
6:35 AM 26.6 °F 16.2 °F 17.6 °F 69% 29.90 in 7.0 mi WNW 11.5 mph - N/A Snow Light Snow
6:55 AM 26.6 °F 17.5 °F 15.8 °F 64% 29.91 in 10.0 mi West 9.2 mph - N/A   Overcast
7:15 AM 26.6 °F 15.7 °F 8.6 °F 47% 29.92 in 10.0 mi West 12.7 mph 19.6 mph N/A   Mostly Cloudy
7:35 AM 26.6 °F 15.2 °F 8.6 °F 47% 29.93 in 10.0 mi WNW 13.8 mph 18.4 mph N/A   Overcast
7:55 AM 26.6 °F 15.7 °F 8.6 °F 47% 29.94 in 10.0 mi West 12.7 mph 17.3 mph N/A   Overcast
8:15 AM 26.6 °F 16.8 °F 8.6 °F 47% 29.95 in 10.0 mi West 10.4 mph - N/A   Mostly Cloudy
8:35 AM 26.6 °F 17.5 °F 8.6 °F 47% 29.96 in 10.0 mi WNW 9.2 mph 17.3 mph N/A   Clear
8:55 AM 28.4 °F 19.1 °F 8.6 °F 43% 29.97 in 10.0 mi WNW 10.4 mph 20.7 mph N/A   Clear
9:15 AM 28.4 °F 16.2 °F 8.6 °F 43% 29.97 in 10.0 mi WNW 17.3 mph 26.5 mph N/A   Clear
9:35 AM 30.2 °F 20.8 °F 6.8 °F 37% 29.97 in 10.0 mi NW 11.5 mph 27.6 mph N/A   Clear
9:55 AM 30.2 °F 20.2 °F 6.8 °F 37% 29.97 in 10.0 mi WNW 12.7 mph 24.2 mph N/A   Clear
10:15 AM 30.2 °F 18.1 °F 6.8 °F 37% 29.99 in 10.0 mi WNW 18.4 mph 25.3 mph N/A   Scattered Clouds
10:35 AM 30.2 °F 18.9 °F 5.0 °F 34% 29.99 in 10.0 mi WNW 16.1 mph 24.2 mph N/A   Scattered Clouds
10:55 AM 30.2 °F 19.3 °F 3.2 °F 32% 30.00 in 10.0 mi NW 15.0 mph 23.0 mph N/A   Scattered Clouds
11:15 AM 28.4 °F 16.6 °F 6.8 °F 40% 30.01 in 10.0 mi West 16.1 mph 25.3 mph N/A   Scattered Clouds
11:35 AM 30.2 °F 19.3 °F 5.0 °F 34% 30.01 in 10.0 mi West 15.0 mph 23.0 mph N/A   Mostly Cloudy
11:55 AM 30.2 °F 19.8 °F 5.0 °F 34% 30.00 in 10.0 mi WNW 13.8 mph 23.0 mph N/A   Scattered Clouds
12:15 PM 32.0 °F 20.1 °F 6.8 °F 35% 30.01 in 10.0 mi West 19.6 mph 27.6 mph N/A   Scattered Clouds
12:35 PM 33.8 °F 23.2 °F 6.8 °F 32% 30.01 in 10.0 mi NW 17.3 mph 34.5 mph N/A   Mostly Cloudy
12:55 PM 33.8 °F 27.0 °F 6.8 °F 32% 30.01 in 10.0 mi NW 8.1 mph 25.3 mph N/A   Mostly Cloudy
1:15 PM 30.2 °F 19.3 °F 3.2 °F 32% 30.01 in 10.0 mi NW 15.0 mph 21.9 mph N/A   Mostly Cloudy
1:55 PM 30.2 °F 18.1 °F 1.4 °F 29% 30.01 in 10.0 mi NW 18.4 mph 23.0 mph N/A   Scattered Clouds
2:15 PM 32.0 °F 22.1 °F 3.2 °F 30% 30.01 in 10.0 mi NW 13.8 mph 23.0 mph N/A   Scattered Clouds
2:35 PM 33.8 °F 23.5 °F 3.2 °F 28% 30.01 in 10.0 mi WNW 16.1 mph 27.6 mph N/A   Scattered Clouds
2:55 PM 32.0 °F 22.1 °F 1.4 °F 27% 30.02 in 10.0 mi WNW 13.8 mph 32.2 mph N/A   Scattered Clouds
3:15 PM 28.4 °F 16.2 °F 1.4 °F 31% 30.03 in 10.0 mi NW 17.3 mph 27.6 mph N/A   Clear
3:35 PM 30.2 °F 18.5 °F 1.4 °F 29% 30.04 in 10.0 mi NW 17.3 mph 27.6 mph N/A   Clear
3:55 PM 28.4 °F 15.1 °F 1.4 °F 31% 30.04 in 10.0 mi WNW 20.7 mph 27.6 mph N/A   Clear
4:15 PM 30.2 °F 18.5 °F 1.4 °F 29% 30.05 in 10.0 mi NW 17.3 mph 27.6 mph N/A   Clear
4:35 PM 30.2 °F 23.4 °F 1.4 °F 29% 30.05 in 10.0 mi WNW 6.9 mph - N/A   Clear
4:55 PM 30.2 °F 18.9 °F 3.2 °F 32% 30.06 in 10.0 mi WNW 16.1 mph 21.9 mph N/A   Scattered Clouds
5:15 PM 28.4 °F 15.1 °F 1.4 °F 31% 30.06 in 10.0 mi WNW 20.7 mph 28.8 mph N/A   Clear
5:35 PM 28.4 °F 16.2 °F 1.4 °F 31% 30.07 in 10.0 mi WNW 17.3 mph 24.2 mph N/A   Clear
5:55 PM 28.4 °F 17.5 °F 1.4 °F 31% 30.09 in 10.0 mi WNW 13.8 mph 19.6 mph N/A   Clear
6:15 PM 26.6 °F 13.8 °F 1.4 °F 34% 30.10 in 10.0 mi NW 17.3 mph 21.9 mph N/A   Clear
6:35 PM 26.6 °F 16.8 °F 1.4 °F 34% 30.11 in 10.0 mi WNW 10.4 mph 17.3 mph N/A   Clear
6:55 PM 26.6 °F 15.7 °F 1.4 °F 34% 30.12 in 10.0 mi WNW 12.7 mph - N/A   Clear
7:15 PM 26.6 °F 16.2 °F 1.4 °F 34% 30.13 in 10.0 mi WNW 11.5 mph 21.9 mph N/A   Clear
7:35 PM 26.6 °F 16.2 °F 1.4 °F 34% 30.15 in 10.0 mi West 11.5 mph - N/A   Clear
7:55 PM 24.8 °F 14.6 °F 1.4 °F 36% 30.15 in 10.0 mi West 10.4 mph 20.7 mph N/A   Clear
8:15 PM 24.8 °F 15.3 °F 1.4 °F 36% 30.16 in 10.0 mi West 9.2 mph - N/A   Clear
8:35 PM 24.8 °F 14.6 °F 1.4 °F 36% 30.16 in 10.0 mi West 10.4 mph - N/A   Clear
8:55 PM 24.8 °F 17.9 °F 1.4 °F 36% 30.17 in 10.0 mi West 5.8 mph - N/A   Clear
9:15 PM 24.8 °F 15.3 °F 1.4 °F 36% 30.18 in 10.0 mi West 9.2 mph - N/A   Clear
9:35 PM 24.8 °F 16.1 °F 3.2 °F 40% 30.19 in 10.0 mi West 8.1 mph - N/A   Clear
9:55 PM 24.8 °F 19.1 °F 3.2 °F 40% 30.19 in 10.0 mi West 4.6 mph - N/A   Clear
10:15 PM 23.0 °F 14.7 °F 3.2 °F 43% 30.20 in 10.0 mi West 6.9 mph - N/A   Clear
10:35 PM 23.0 °F 15.8 °F 3.2 °F 43% 30.20 in 10.0 mi West 5.8 mph - N/A   Clear
10:55 PM 21.2 °F 11.7 °F 3.2 °F 46% 30.20 in 10.0 mi West 8.1 mph - N/A   Clear
11:15 PM 21.2 °F 14.9 °F 3.2 °F 46% 30.20 in 10.0 mi West 4.6 mph - N/A   Clear
11:35 PM 21.2 °F - 5.0 °F 50% 30.20 in 10.0 mi Calm Calm - N/A   Clear
11:55 PM 19.4 °F 14.3 °F 8.6 °F 63% 30.21 in 10.0 mi SW 3.5 mph - N/A   Clear